�������l�o���
Date,Time,MP-1(��Sv/h),MP-2(��Sv/h),MP-3(��Sv/h),MP-4(��Sv/h),MP-5(��Sv/h),MP-6(��Sv/h),MP-7(��Sv/h),����,����(m/s),���J
2018/09/24,00:00,0.303,0.188,0.301,0.295,0.280,0.152,0.093,��쐼,7.2,��
2018/09/24,00:10,0.303,0.187,0.302,0.292,0.282,0.150,0.093,��쐼,7.9,��
2018/09/24,00:20,0.304,0.188,0.302,0.293,0.279,0.151,0.092,��,8.1,��
2018/09/24,00:30,0.302,0.188,0.303,0.292,0.281,0.150,0.092,��쐼,6.6,��
2018/09/24,00:40,0.304,0.188,0.303,0.293,0.280,0.152,0.093,��쐼,6.5,��
2018/09/24,00:50,0.302,0.187,0.301,0.294,0.281,0.150,0.093,��쐼,6.2,��
2018/09/24,01:00,0.304,0.187,0.304,0.291,0.280,0.150,0.093,��쐼,5.7,��
2018/09/24,01:10,0.303,0.187,0.303,0.294,0.278,0.151,0.093,��쐼,5.2,��
2018/09/24,01:20,0.303,0.187,0.303,0.294,0.281,0.151,0.093,��쐼,5.0,��
2018/09/24,01:30,0.303,0.188,0.303,0.294,0.279,0.152,0.092,��쐼,5.2,��
2018/09/24,01:40,0.302,0.187,0.301,0.292,0.283,0.151,0.093,��쐼,5.9,��
2018/09/24,01:50,0.304,0.188,0.303,0.293,0.280,0.151,0.093,��쐼,5.3,��
2018/09/24,02:00,0.301,0.188,0.302,0.294,0.280,0.151,0.093,�쐼,4.7,��
2018/09/24,02:10,0.305,0.188,0.304,0.292,0.280,0.151,0.092,��쐼,4.6,��
2018/09/24,02:20,0.302,0.187,0.302,0.296,0.280,0.150,0.094,��쐼,4.8,��
2018/09/24,02:30,0.304,0.188,0.303,0.292,0.282,0.150,0.093,��쐼,3.1,��
2018/09/24,02:40,0.303,0.187,0.301,0.294,0.280,0.151,0.093,��쐼,3.3,��
2018/09/24,02:50,0.303,0.187,0.304,0.293,0.281,0.150,0.092,��쐼,4.1,��
2018/09/24,03:00,0.303,0.187,0.304,0.294,0.279,0.152,0.093,��쐼,4.3,��
2018/09/24,03:10,0.304,0.188,0.304,0.295,0.280,0.151,0.093,��쐼,3.8,��
2018/09/24,03:20,0.305,0.187,0.304,0.293,0.280,0.151,0.093,��쐼,2.0,��
2018/09/24,03:30,0.302,0.187,0.303,0.294,0.279,0.150,0.093,��쐼,2.6,��
2018/09/24,03:40,0.305,0.187,0.304,0.292,0.282,0.151,0.092,��쐼,4.2,��
2018/09/24,03:50,0.301,0.187,0.302,0.295,0.278,0.151,0.092,��쐼,3.8,��
2018/09/24,04:00,0.305,0.187,0.305,0.293,0.282,0.151,0.092,�쐼,2.2,��
2018/09/24,04:10,0.303,0.188,0.303,0.296,0.279,0.151,0.093,�쐼,2.8,��
2018/09/24,04:20,0.302,0.188,0.305,0.293,0.281,0.151,0.092,��쐼,3.3,��
2018/09/24,04:30,0.304,0.187,0.302,0.294,0.278,0.151,0.093,��쐼,3.2,��
2018/09/24,04:40,0.304,0.187,0.304,0.294,0.280,0.151,0.093,�쐼,3.6,��
2018/09/24,04:50,0.303,0.187,0.301,0.293,0.280,0.152,0.093,��쐼,5.1,��
2018/09/24,05:00,0.302,0.187,0.304,0.292,0.279,0.150,0.093,��쐼,6.5,��
2018/09/24,05:10,0.303,0.187,0.304,0.293,0.281,0.151,0.093,��쐼,5.4,��
2018/09/24,05:20,0.301,0.187,0.303,0.295,0.279,0.151,0.093,��쐼,4.9,��
2018/09/24,05:30,0.305,0.188,0.303,0.292,0.281,0.151,0.092,��쐼,4.4,��
2018/09/24,05:40,0.301,0.187,0.301,0.294,0.280,0.150,0.092,��쐼,4.5,��
2018/09/24,05:50,0.306,0.188,0.303,0.290,0.281,0.151,0.093,��쐼,4.4,��
2018/09/24,06:00,0.303,0.186,0.302,0.295,0.281,0.150,0.093,��쐼,4.6,��
2018/09/24,06:10,0.302,0.188,0.303,0.291,0.280,0.151,0.092,��쐼,3.6,��
2018/09/24,06:20,0.302,0.187,0.301,0.294,0.280,0.151,0.092,�쐼,4.3,��
2018/09/24,06:30,0.304,0.188,0.304,0.291,0.278,0.151,0.092,��쐼,4.0,��
2018/09/24,06:40,0.305,0.188,0.303,0.293,0.282,0.151,0.093,��쐼,4.3,��
2018/09/24,06:50,0.302,0.188,0.303,0.293,0.279,0.150,0.092,��쐼,3.9,��
2018/09/24,07:00,0.305,0.187,0.302,0.291,0.280,0.150,0.091,��쐼,4.3,��
2018/09/24,07:10,0.302,0.187,0.302,0.294,0.281,0.151,0.091,��쐼,4.1,��
2018/09/24,07:20,0.304,0.186,0.305,0.293,0.278,0.151,0.091,��쐼,4.0,��
2018/09/24,07:30,0.302,0.187,0.300,0.290,0.280,0.151,0.091,��쐼,3.7,��
2018/09/24,07:40,0.300,0.188,0.304,0.293,0.281,0.150,0.092,��,3.2,��
2018/09/24,07:50,0.304,0.186,0.303,0.294,0.279,0.151,0.092,��,3.0,��
2018/09/24,08:00,0.301,0.185,0.300,0.293,0.278,0.151,0.093,��,3.8,��
2018/09/24,08:10,0.304,0.186,0.304,0.290,0.282,0.151,0.093,��쓌,3.5,��
2018/09/24,08:20,0.305,0.187,0.302,0.290,0.280,0.152,0.092,��,4.5,��
2018/09/24,08:30,0.302,0.187,0.299,0.291,0.278,0.152,0.092,��,4.7,��
2018/09/24,08:40,0.303,0.187,0.304,0.293,0.280,0.150,0.093,��쓌,4.0,��
2018/09/24,08:50,0.304,0.186,0.303,0.296,0.281,0.152,0.093,��쓌,2.4,��
2018/09/24,09:00,0.300,0.186,0.300,0.295,0.281,0.151,0.092,��,3.9,��
2018/09/24,09:10,0.300,0.184,0.303,0.293,0.278,0.150,0.093,��쓌,2.8,��
2018/09/24,09:20,0.303,0.185,0.302,0.293,0.278,0.151,0.092,��쓌,3.3,��
2018/09/24,09:30,0.304,0.185,0.301,0.293,0.277,0.151,0.093,��쓌,2.2,��
2018/09/24,09:40,0.302,0.187,0.301,0.292,0.278,0.150,0.092,��,4.5,��
2018/09/24,09:50,0.301,0.189,0.305,0.293,0.278,0.151,0.092,��,4.9,��
2018/09/24,10:00,0.301,0.188,0.302,0.292,0.278,0.151,0.093,��쓌,5.4,��
2018/09/24,10:10,0.301,0.188,0.299,0.293,0.279,0.151,0.092,��쓌,6.3,��
2018/09/24,10:20,0.301,0.186,0.302,0.293,0.278,0.152,0.092,��,6.5,��
2018/09/24,10:30,0.303,0.188,0.305,0.294,0.280,0.151,0.093,��,6.2,��
2018/09/24,10:40,0.301,0.187,0.302,0.293,0.280,0.151,0.092,��,5.8,��
2018/09/24,10:50,0.303,0.187,0.302,0.292,0.281,0.151,0.092,��,5.5,��
2018/09/24,11:00,0.304,0.187,0.302,0.292,0.280,0.151,0.093,��,6.4,��
2018/09/24,11:10,0.303,0.188,0.301,0.293,0.280,0.152,0.093,��,5.4,��
2018/09/24,11:20,0.303,0.188,0.301,0.294,0.280,0.151,0.093,��,6.0,��
2018/09/24,11:30,0.303,0.188,0.302,0.293,0.279,0.153,0.092,��쓌,6.8,��
2018/09/24,11:40,0.303,0.188,0.302,0.293,0.280,0.152,0.092,��쓌,6.0,��
2018/09/24,11:50,0.301,0.187,0.302,0.294,0.281,0.152,0.094,��쓌,7.0,��
2018/09/24,12:00,0.302,0.187,0.301,0.294,0.280,0.151,0.093,��,7.3,��
2018/09/24,12:10,0.303,0.188,0.303,0.294,0.280,0.152,0.093,��쓌,6.3,��
2018/09/24,12:20,0.302,0.189,0.303,0.293,0.280,0.151,0.093,��,6.2,��
2018/09/24,12:30,0.301,0.188,0.302,0.293,0.281,0.152,0.092,��,7.2,��
2018/09/24,12:40,0.303,0.187,0.303,0.292,0.280,0.151,0.093,��쓌,6.0,��
2018/09/24,12:50,0.302,0.187,0.303,0.293,0.280,0.151,0.093,��,6.8,��
2018/09/24,13:00,0.302,0.186,0.303,0.293,0.281,0.151,0.094,��,6.2,��
2018/09/24,13:10,0.302,0.187,0.302,0.294,0.279,0.152,0.092,��쓌,5.6,��
2018/09/24,13:20,0.301,0.186,0.303,0.292,0.280,0.152,0.093,��,7.2,��
2018/09/24,13:30,0.301,0.187,0.301,0.292,0.279,0.151,0.092,��,7.3,��
2018/09/24,13:40,0.301,0.185,0.302,0.294,0.281,0.152,0.093,��,6.5,��
2018/09/24,13:50,0.300,0.187,0.302,0.291,0.279,0.152,0.093,��,5.3,��
2018/09/24,14:00,0.300,0.187,0.300,0.294,0.279,0.151,0.092,��쓌,4.6,��
2018/09/24,14:10,0.302,0.188,0.301,0.292,0.279,0.152,0.093,��,4.0,��
2018/09/24,14:20,0.306,0.190,0.305,0.296,0.280,0.151,0.093,��,5.3,�L
2018/09/24,14:30,0.305,0.189,0.306,0.297,0.278,0.151,0.093,��,4.9,�L
2018/09/24,14:40,0.303,0.187,0.304,0.295,0.280,0.152,0.093,��,5.1,��
2018/09/24,14:50,0.301,0.186,0.301,0.294,0.283,0.151,0.093,��,5.0,��
2018/09/24,15:00,0.304,0.188,0.304,0.292,0.281,0.151,0.092,��,5.4,��
2018/09/24,15:10,0.307,0.189,0.304,0.297,0.280,0.152,0.093,��,5.9,��
2018/09/24,15:20,0.304,0.188,0.304,0.296,0.278,0.152,0.093,��,5.2,��
2018/09/24,15:30,0.302,0.186,0.301,0.293,0.280,0.151,0.092,��,3.8,��
2018/09/24,15:40,0.300,0.186,0.301,0.291,0.282,0.150,0.093,��,3.9,��
2018/09/24,15:50,0.302,0.189,0.306,0.295,0.281,0.150,0.092,��,3.9,��
2018/09/24,16:00,0.306,0.188,0.303,0.294,0.280,0.151,0.093,��,4.4,��
2018/09/24,16:10,0.303,0.188,0.300,0.294,0.278,0.151,0.093,��,4.3,��
2018/09/24,16:20,0.301,0.186,0.302,0.291,0.279,0.151,0.092,��,4.1,�L
2018/09/24,16:30,0.300,0.187,0.306,0.294,0.282,0.150,0.092,��,5.0,�L
2018/09/24,16:40,0.304,0.189,0.303,0.293,0.279,0.151,0.092,��,5.3,��
2018/09/24,16:50,0.304,0.187,0.300,0.292,0.277,0.152,0.093,��,4.8,��
2018/09/24,17:00,0.302,0.186,0.304,0.293,0.282,0.152,0.092,��쓌,3.9,��
2018/09/24,17:10,0.302,0.188,0.304,0.295,0.282,0.151,0.092,��,4.9,��
2018/09/24,17:20,0.307,0.188,0.302,0.293,0.279,0.151,0.093,��,4.5,��
2018/09/24,17:30,0.304,0.187,0.302,0.292,0.278,0.152,0.093,��,4.1,��
2018/09/24,17:40,0.301,0.187,0.305,0.294,0.282,0.150,0.093,��,2.8,��
2018/09/24,17:50,0.303,0.189,0.303,0.294,0.282,0.151,0.093,��쓌,1.2,��
2018/09/24,18:00,0.304,0.188,0.301,0.292,0.277,0.152,0.093,��쓌,3.3,��
2018/09/24,18:10,0.302,0.186,0.305,0.295,0.281,0.151,0.093,��,3.8,��
2018/09/24,18:20,0.302,0.188,0.304,0.297,0.282,0.151,0.092,��,5.4,��
2018/09/24,18:30,0.303,0.187,0.301,0.293,0.277,0.152,0.094,��쓌,4.0,��
2018/09/24,18:40,0.303,0.187,0.304,0.293,0.282,0.152,0.092,��,2.9,��
2018/09/24,18:50,0.303,0.189,0.305,0.296,0.282,0.150,0.093,��,1.3,��
2018/09/24,19:00,0.305,0.187,0.302,0.293,0.279,0.152,0.093,��,2.3,��
2018/09/24,19:10,0.302,0.188,0.304,0.294,0.280,0.151,0.092,��,3.0,��
2018/09/24,19:20,0.303,0.187,0.304,0.296,0.281,0.150,0.093,��쓌,3.8,��
2018/09/24,19:30,0.305,0.186,0.301,0.292,0.278,0.151,0.093,��쓌,4.7,��
2018/09/24,19:40,0.303,0.188,0.306,0.293,0.279,0.151,0.093,��,4.9,��
2018/09/24,19:50,0.302,0.188,0.303,0.295,0.282,0.151,0.092,��,4.0,��
2018/09/24,20:00,0.305,0.186,0.300,0.294,0.278,0.152,0.093,��,3.2,��
2018/09/24,20:10,0.303,0.189,0.304,0.293,0.281,0.151,0.093,��쐼,3.6,��
2018/09/24,20:20,0.304,0.188,0.303,0.296,0.281,0.150,0.092,��,3.3,��
2018/09/24,20:30,0.306,0.187,0.301,0.293,0.279,0.151,0.093,��,3.4,��
2018/09/24,20:40,0.302,0.187,0.305,0.293,0.279,0.152,0.092,��쐼,3.1,��
2018/09/24,20:50,0.302,0.187,0.303,0.296,0.282,0.150,0.093,��쐼,3.1,��
2018/09/24,21:00,0.304,0.189,0.301,0.293,0.280,0.152,0.093,��,2.8,��
2018/09/24,21:10,0.302,0.188,0.305,0.293,0.280,0.150,0.092,��,0.9,��
2018/09/24,21:20,0.304,0.186,0.304,0.297,0.283,0.151,0.093,��,1.2,��
2018/09/24,21:30,0.304,0.189,0.301,0.292,0.279,0.151,0.093,��쐼,1.6,��
2018/09/24,21:40,0.302,0.187,0.304,0.296,0.281,0.151,0.093,��,1.5,��
2018/09/24,21:50,0.306,0.188,0.302,0.296,0.281,0.151,0.093,��,3.1,��
2018/09/24,22:00,0.302,0.190,0.304,0.292,0.277,0.153,0.093,��,2.3,��
2018/09/24,22:10,0.304,0.187,0.303,0.296,0.282,0.152,0.093,��,1.1,��
2018/09/24,22:20,0.304,0.189,0.302,0.294,0.280,0.151,0.093,��쐼,1.8,��
2018/09/24,22:30,0.302,0.188,0.305,0.294,0.280,0.152,0.093,��,2.7,��
2018/09/24,22:40,0.305,0.189,0.303,0.296,0.282,0.151,0.093,��쐼,1.5,��
2018/09/24,22:50,0.302,0.188,0.304,0.294,0.280,0.153,0.094,��쐼,2.5,��
2018/09/24,23:00,0.303,0.188,0.306,0.295,0.283,0.152,0.094,�쐼,2.2,��
2018/09/24,23:10,0.305,0.189,0.303,0.295,0.282,0.152,0.094,��,1.6,��
2018/09/24,23:20,0.302,0.188,0.305,0.293,0.279,0.152,0.092,�k��,1.8,��
2018/09/24,23:30,0.305,0.188,0.304,0.297,0.282,0.151,0.093,�k��,2.3,��
2018/09/24,23:40,0.303,0.189,0.303,0.294,0.281,0.153,0.093,���k��,1.9,��
2018/09/24,23:50,0.303,0.189,0.306,0.294,0.280,0.152,0.093,���k��,3.5,��
